Skip Page Navigation
NASA JPL Caltech
NASA Logo - Jet Propulsion Laboratory + View the NASA Portal
+ Center for Near-Earth Object Studies
JPL Home Earth Solar System Stars & Galaxies Technology
JPL Solar System Dynamics
BODIES ORBITS EPHEMERIDES TOOLS PHYSICAL DATA DISCOVERY FAQ SITE MAP
IMPORTANT: The SSD Announcement email list is now available. Major changes are coming in the near future, including possible hostname and/or URL changes. To be notified of such changes, subscribe to this email list.

Please visit this page for more details.


JPL Small-Body Database Browser
Search: [ help ]  
7905 Juzoitami (1997 OX)
Classification: Main-belt Asteroid          SPK-ID: 2007905
Ephemeris | Orbit Diagram | Orbital Elements | Mission Design | Physical Parameters | Discovery Circumstances | Close-Approach Data ]

[ show orbit diagram ]
Orbital Elements at Epoch 2459000.5 (2020-May-31.0) TDB
Reference: JPL 34 (heliocentric ecliptic J2000)
 Element Value Uncertainty (1-sigma)   Units 
e .07997011183742242 3.6698e-08  
a 3.111711862759212 2.0495e-08 au
q 2.862867917088524 1.1953e-07 au
i 12.24002634992871 4.701e-06 deg
node 94.10694753816855 1.9819e-05 deg
peri 296.0243674335363 3.6831e-05 deg
M 331.1084206018007 3.1506e-05 deg
tp 2459161.403789780610
(2020-Nov-07.90378978)
0.00017563 TDB
period 2004.922040524711
5.49
1.9808e-05
5.423e-08
d
yr
n .1795581038681104 1.7739e-09 deg/d
Q 3.3605558084299 2.2134e-08 au
  Orbit Determination Parameters
   # obs. used (total)      2081  
   data-arc span      25123 days (68.78 yr)  
   first obs. used      1951-03-09  
   last obs. used      2019-12-20  
   planetary ephem.      DE431  
   SB-pert. ephem.      SB431-N16  
   condition code      0  
   norm. resid. RMS      .44181  
   source      ORB  
   producer      Otto Matic  
   solution date      2020-Feb-22 18:40:57  

Additional Information
 Earth MOID = 1.89599 au 
 Jupiter MOID = 2.02686 au 
 T_jup = 3.179 
[ show covariance matrix ]

Ephemeris | Orbit Diagram | Orbital Elements | Mission Design | Physical Parameters | Discovery Circumstances | Close-Approach Data ]

Physical Parameter Table
Parameter Symbol Value Units Sigma Reference Notes
absolute magnitude H 11.8   n/a MPO358708  
rotation period rot_per 2.728 h n/a LCDB (Rev. 2019-August); Warner et al., 2009 Result based on less than full coverage, so that the period may be wrong by 30 percent or so.
Published Reference List:
[Hanus, J.; Durech, J.; Broz, M.; Marciniak, A.; et al. (2013) Astron. Astrophys. 551, A67.]
[Waszczak, A.; Chang, C.-K.; Ofeck, E.O.; Laher, F.; et al. (2015) Astron. J. 150, A75.]

7905 Juzoitami           Discovered 1997 July 24 by A. Nakamura at Kuma Kogen.
Named in memory of Juzo Itami (1933-1997), actor, translator, essayist, editor and well-known director since the great success of his first work Osoushiki (Funeral). His last work Shizukana Seikatsu (Quiet Life) is based on the novel written by Kenzaburo Oe, winner of the Nobel Prize in literature in 1994 and brother-in-law of Itami.
NOTE: some special characters may not display properly (any characters within {} are an attempt to place the proper accent above a character)
Reference: 19980610/MPCPages.arcLast Updated: 2009-11-17

[ show close-approach data ]
Alternate Designations
 1997 OX = 1951 EE1 = 1952 HH1 = 1979 FF4 = 1981 PC = 1991 LG5 
Ephemeris | Orbit Diagram | Orbital Elements | Mission Design | Physical Parameters | Discovery Circumstances | Close-Approach Data ]
ABOUT SSD CREDITS/AWARDS PRIVACY/COPYRIGHT GLOSSARY LINKS
FirstGov 2020-Apr-02 16:39 UT
(server date/time)  
NASA Home Page
Site Manager:   Ryan S. Park
Webmaster  Alan B. Chamberlin